Home   Weather   Behbahan   Past weeks

Flag for Iran Past Weather in Behbahan, Iran — Yesterday and Last 2 Weeks

Now
70 °F

Scattered clouds.


Feels Like: 70 °F
Forecast: 46 / 62 °F
Wind: 9 mph from West

Location: Gach Saran Du Gunbadan

Current Time: Dec 8, 2016 at 3:31:09 pm

Latest Report: Dec 8, 2016 at 2:30 pm


Visibility: N/A

Pressure: 30.09 "Hg

Humidity: 38%

Dew Point: 43 °F

Location of BehbahanLocation

Past Weather in Behbahan — Graph

°F

Behbahan Temperature Yesterday

Maximum temperature yesterday: 72 °F (at 11:30 am)
Minimum temperature yesterday: 52 °F (at 5:30 am)
Average temperature yesterday: 62 °F

High & Low Weather Summary for the Past Weeks

 TemperatureHumidityPressure
High79 °F (Dec 4, 2:30 pm)100% (Nov 26, 10:30 pm)30.33 "Hg (Nov 26, 10:30 pm)
Low45 °F (Nov 30, 2:30 am)18% (Nov 29, 3:30 pm)30.01 "Hg (Nov 23, 1:30 pm)
Average61 °F68%30.15 "Hg
* Reported Nov 23 1:30 pm — Dec 8 1:30 pm, Behbahan, Weather by CustomWeather, © 2016

Note: Actual official high and low records may vary slightly from our data, if they occured in-between our weather recording intervals... More about our weather records

Advertising

Behbahan Weather History for the Previous 24 Hours

Scroll right to see more
 ConditionsComfort  
Time TempWeatherWind HumidityBarometerVisibility
1:30 pm
Thu, Dec 8
70 °FPassing clouds.7 mph53%30.12 "HgN/A
12:30 pm70 °FPassing clouds.5 mph57%30.12 "HgN/A
11:30 am70 °FPassing clouds.No wind57%30.15 "HgN/A
10:30 am66 °FSunny.5 mph68%30.18 "Hg10 mi
9:30 am64 °FSunny.No wind73%30.18 "Hg10 mi
8:30 am59 °FScattered clouds.No wind94%30.18 "HgN/A
7:30 am54 °FScattered clouds.No wind100%30.15 "HgN/A
6:30 am54 °FPassing clouds.No wind100%30.15 "HgN/A
5:30 am55 °FPassing clouds.No wind94%30.15 "HgN/A
4:30 am55 °FPassing clouds.No wind100%30.12 "HgN/A
3:30 am57 °FPassing clouds.No wind94%30.12 "HgN/A
2:30 am55 °FPassing clouds.No wind100%30.15 "HgN/A
1:30 am57 °FPassing clouds.No wind94%30.15 "HgN/A
12:30 am57 °FPassing clouds.No wind100%30.15 "HgN/A
11:30 pm
Wed, Dec 7
59 °FPassing clouds.No wind94%30.15 "HgN/A
10:30 pm59 °FMostly cloudy.No wind94%30.15 "HgN/A
9:30 pm61 °FMostly cloudy.No wind94%30.15 "HgN/A
8:30 pm61 °FPassing clouds.No wind88%30.15 "HgN/A
7:30 pm63 °FPassing clouds.No wind83%30.15 "HgN/A
6:30 pm63 °FPassing clouds.5 mph83%30.12 "HgN/A
5:30 pm64 °FScattered clouds.5 mph73%30.12 "HgN/A
4:30 pm68 °FScattered clouds.5 mph64%30.12 "HgN/A
3:30 pm70 °FScattered clouds.5 mph57%30.12 "HgN/A
Weather by CustomWeather, © 2016

See weather overviewHow to use our weather pages